Location: Mexico
(19.4000°N, 99.1500°W)
Time: 10:13:54
(UTC-06:00)

ISS - Pass Details

Date: 13 August 2017
Orbit: 401 x 408 km, 51.6° (Epoch: 19 August)

Event Time Altitude Azimuth Distance (km) Brightness Sun altitude
Rises 20:56:55 0° 328° (NNW) 2,302 0.9 -25.3°
Reaches altitude 10° 20:59:02 10° 334° (NNW) 1,443 -0.4 -25.8°
Enters shadow 21:00:04 18° 341° (NNW) 1,048 -1.3 -26.0°
